Location: Brimfield Station
(41.0998°N, 81.3704°W)
Time: 20:04:40
(UTC+00:00)

Daily predictions for brighter satellites

Satellite Brightness Start Highest point End
(mag) Time Altitude Azimuth Time Altitude Azimuth Time Altitude Azimuth
USA 281 4.3 22:23:01 10° E 22:27:38 21° NE 22:32:16 10° N
Cosmos 372 Rocket 3.9 22:22:34 10° NNW 22:27:44 77° ENE 22:32:54 10° SSE
NOSS 0 Rocket 4.1 22:21:40 10° S 22:27:47 61° ESE 22:33:55 10° NNE
NOAA 6 4.0 22:23:17 10° SSE 22:28:27 82° ENE 22:33:37 10° NNW
COSMOS 2428 3.1 22:24:24 10° SSW 22:30:06 68° WNW 22:35:50 10° NNE
Cosmos 2298 Rocket 4.2 22:27:51 10° N 22:33:02 52° ENE 22:38:12 10° SE
Cosmos 1818 4.1 22:28:52 10° NNW 22:33:59 39° NE 22:39:04 10° ESE
ISS -3.8 22:31:04 10° SW 22:34:25 85° SE 22:37:47 10° NE
Cosmos 2150 Rocket 4.2 22:29:45 10° N 22:34:46 49° ENE 22:39:44 10° SE
ERS-2 3.2 22:36:33 10° NE 22:39:41 26° E 22:42:48 10° SSE
Cosmos 1939 Rocket 4.1 22:37:12 10° ESE 22:39:54 18° ENE 22:42:37 10° NNE
Cosmos 2327 Rocket 4.5 22:34:45 10° N 22:40:51 63° E 22:47:00 10° SSE
Cosmos 2221 2.9 22:36:51 10° SSW 22:41:10 67° W 22:45:29 10° N
Cosmos 2278 Rocket 2.3 22:35:49 10° NNW 22:41:25 56° ENE 22:46:59 10° SE
Cosmos 2074 Rocket 4.1 22:35:15 10° N 22:41:30 85° W 22:47:45 10° S
CZ-4B R/B 2.1 22:40:43 10° NE 22:43:26 28° E 22:46:10 10° SSE
CSL-04 DEB 4.4 22:42:20 10° NNE 22:46:25 75° ESE 22:50:35 10° S
Cosmos 1500 Rocket 3.5 22:42:17 10° N 22:46:42 84° E 22:51:07 10° S
NOSS 2-1 (C) 4.4 22:42:33 10° NNW 22:47:52 73° NE 22:55:24 10° SE
TELKOM 3 3.1 22:45:59 10° SW 22:48:51 73° SE 22:50:44 16° ENE
Cosmos 1125 Rocket 3.7 22:46:50 10° N 22:51:52 48° ENE 22:56:54 10° SE
Radarsat Rocket 4.2 22:46:15 10° SSE 22:52:07 79° WSW 22:58:33 10° NNW
Cosmos 2184 Rocket 4.4 22:46:41 10° NNW 22:53:03 72° W 22:59:21 10° S
NOSS 2-1 (D) 4.4 22:47:58 10° NNW 22:53:20 79° NE 23:00:57 10° SE
YAOGAN 1 4.2 22:55:22 14° ENE 22:55:33 14° ENE 22:57:47 10° NNE
ADEOS Rocket 4.3 22:48:19 10° N 22:55:46 57° WNW 23:03:18 10° SW
Cosmos 2219 Rocket 3.7 22:54:02 10° WSW 22:59:08 34° WNW 23:04:17 10° N
USA 215 3.3 22:54:32 10° NE 23:01:07 88° NW 23:07:40 10° SW
CZ-4B R/B 3.3 22:56:08 10° SSE 23:01:30 80° WSW 23:06:51 10° NNW
NOAA 12 4.2 22:56:47 10° SSE 23:02:07 85° WSW 23:07:29 10° NNW
Okean-O 3.9 22:59:10 10° ESE 23:02:21 20° ENE 23:05:33 10° NNE
AQUARIUS 4.2 22:59:17 10° SSE 23:03:46 86° WSW 23:08:17 10° NNW
Cosmos 1295 Rocket 4.4 22:59:10 10° N 23:05:20 77° E 23:11:33 10° SSE
FengYun 1-2 T 4.2 23:00:40 10° SSE 23:06:12 73° ENE 23:11:44 10° N
SL-24 R/B - RUBIN 2 4.3 23:00:13 10° NNW 23:06:28 65° NE 23:11:57 10° SE
H-2A R/B 4.1 23:02:47 10° SSW 23:06:54 39° W 23:10:56 10° NNW
Cosmos 2237 Rocket 2.2 23:01:35 10° SSW 23:07:12 87° WNW 23:12:53 10° NNE
COSMO-SKYMED 1 3.0 23:03:49 10° NNE 23:07:55 40° E 23:11:59 10° SSE
Cosmos 1743 Rocket 4.5 23:04:21 10° NNW 23:08:42 53° W 23:13:01 10° S
NOAA 11 4.1 23:03:48 10° SSE 23:09:11 73° ENE 23:14:37 10° N
Okean O Rocket 2.1 23:10:31 10° S 23:14:48 62° WSW 23:19:09 10° NNW
Cosmos 1933 3.7 23:12:11 10° SSE 23:15:56 39° E 23:19:06 14° NNE
SL-24 R/B 4.3 23:13:00 12° NNE 23:16:29 37° E 23:19:59 10° SSE
Cosmos 405 Rocket 4.0 23:13:06 10° NNW 23:16:51 45° W 23:20:38 10° SSW
USA 81 4.3 23:14:48 10° N 23:19:49 43° E 23:24:49 10° SSE
Sich 1 2.9 23:15:33 10° N 23:19:57 72° E 23:24:17 10° SSE
PSLV R/B 4.3 23:20:05 20° NE 23:22:26 39° E 23:26:12 10° SSE
Cosmos 2369 Rocket 4.0 23:20:05 10° NNE 23:22:06 14° NE 23:22:06 14° NE
Cosmos 1980 4.3 23:19:39 10° SW 23:25:14 59° WNW 23:30:53 10° NNE
H-2A R/B 3.0 23:25:29 25° E 23:26:13 26° ENE 23:30:28 10° NNE
Cosmos 1805 Rocket 4.0 23:24:33 10° NNW 23:28:59 66° W 23:33:22 10° S
Helios 1A Rocket 3.4 23:25:57 10° SE 23:29:34 34° ENE 23:33:14 10° N
SKYMED 3 4.4 23:27:40 10° NNE 23:32:02 76° ESE 23:36:21 10° S
USA 267 3.4 23:27:58 20° E 23:32:25 52° NNE 23:38:42 10° NW
Cosmos 2218 Rocket 4.0 23:26:36 10° N 23:32:36 52° ENE 23:38:33 10° SSE
Cosmos 389 Rocket 2.8 23:30:04 10° SSW 23:33:27 63° W 23:36:46 11° N
Cosmos 1151 Rocket 3.0 23:30:44 10° S 23:34:54 54° E 23:37:28 22° NNE
Cosmos 1666 Rocket 3.4 23:30:44 10° N 23:35:07 66° E 23:39:30 10° SSE
Cosmos 773 Rocket 4.4 23:30:45 10° S 23:35:34 39° ESE 23:37:15 31° ENE
Cosmos 1782 4.2 23:33:15 10° SSE 23:35:11 23° SE 23:35:11 23° SE
Cosmos 1606 3.4 23:34:14 10° SSW 23:38:03 55° W 23:41:54 10° N
Cosmos 1328 Rocket 3.6 23:34:20 10° S 23:38:30 51° E 23:40:17 30° NE
Cosmos 783 Rocket 4.5 23:35:01 10° S 23:40:15 63° ESE 23:43:31 23° NNE
Cosmos 2366 rocket 3.9 23:38:37 10° N 23:44:47 62° E 23:50:51 10° SSE
SL-24 DEB 4.3 23:41:06 10° NNE 23:45:48 57° E 23:50:27 10° S
BREEZE-M DEB (TANK) 3.9 23:36:41 10° SW 23:47:13 48° SSE 23:48:27 38° ESE
Cosmos 2297 3.8 23:42:10 10° NNW 23:47:43 52° ENE 23:50:36 27° SE
BREEZE-M DEB (TANK) 3.6 23:45:48 10° W 23:47:24 24° NW 23:47:24 24° NW
Abrixas rocket 3.3 23:53:45 10° WNW 23:55:50 36° WSW 23:55:50 36° WSW
